Time,TemperatureF,DewpointF,PressureIn,WindDirection,WindDirectionDegrees,WindSpeedMPH,WindSpeedGustMPH,Humidity,HourlyPrecipIn,Conditions,Clouds,dailyrainin,SolarRadiationWatts/m^2,SoftwareType,DateUTC
2013-12-01 00:03:00,72.3,72.3,29.95,South,179,0.0,3.0,100,0.00,,,4.02,0.0,meteohub,2013-12-01 04:03:00,
2013-12-01 00:08:00,72.3,72.3,29.95,SW,233,5.0,5.0,100,0.00,,,0.00,0.0,meteohub,2013-12-01 04:08:00,
2013-12-01 00:13:00,72.1,72.1,29.95,SW,233,0.0,6.0,100,0.00,,,0.00,0.0,meteohub,2013-12-01 04:13:00,
2013-12-01 00:18:00,72.3,72.3,29.95,SW,233,0.0,6.0,100,0.00,,,0.00,0.0,meteohub,2013-12-01 04:18:00,
2013-12-01 00:23:00,72.3,72.3,29.95,SW,232,0.0,6.0,100,0.00,,,0.00,0.0,meteohub,2013-12-01 04:23:00,
2013-12-01 00:28:00,72.3,72.3,29.95,SW,230,0.0,0.0,100,0.00,,,0.00,0.0,meteohub,2013-12-01 04:28:00,
2013-12-01 00:33:00,72.3,72.3,29.95,SW,232,0.0,0.0,100,0.00,,,0.00,0.0,meteohub,2013-12-01 04:33:00,
2013-12-01 00:38:00,72.3,72.3,29.95,SW,230,0.0,0.0,100,0.00,,,0.00,0.0,meteohub,2013-12-01 04:38:00,
2013-12-01 00:43:00,72.3,72.3,29.95,SW,230,0.0,0.0,100,0.01,,,0.01,0.0,meteohub,2013-12-01 04:43:00,
2013-12-01 00:48:00,72.3,72.3,29.95,SW,230,0.0,0.0,100,0.01,,,0.01,0.0,meteohub,2013-12-01 04:48:00,
2013-12-01 00:53:00,72.3,72.3,29.95,SW,229,0.0,0.0,100,0.01,,,0.01,0.0,meteohub,2013-12-01 04:53:00,
2013-12-01 00:58:00,72.3,72.3,29.94,SW,233,0.0,0.0,100,0.01,,,0.01,0.0,meteohub,2013-12-01 04:58:00,
2013-12-01 01:01:00,72.3,72.3,29.94,SW,230,0.0,0.0,100,0.01,,,0.01,0.0,meteohub,2013-12-01 05:01:00,
2013-12-01 01:02:00,72.3,72.3,29.94,SW,230,0.0,0.0,100,0.01,,,0.01,0.0,meteohub,2013-12-01 05:02:00,
2013-12-01 01:07:00,72.3,72.3,29.94,SW,230,0.0,0.0,100,0.01,,,0.01,0.0,meteohub,2013-12-01 05:07:00,
2013-12-01 01:12:00,72.3,72.3,29.95,SW,232,0.0,0.0,100,0.01,,,0.01,0.0,meteohub,2013-12-01 05:12:00,
2013-12-01 01:17:00,72.3,72.3,29.95,SW,232,0.0,0.0,100,0.01,,,0.01,0.0,meteohub,2013-12-01 05:17:00,
2013-12-01 01:22:00,72.3,72.3,29.95,SW,232,0.0,0.0,100,0.01,,,0.01,0.0,meteohub,2013-12-01 05:22:00,
2013-12-01 01:27:00,72.5,72.5,29.96,SW,232,0.0,0.0,100,0.01,,,0.01,0.0,meteohub,2013-12-01 05:27:00,
2013-12-01 01:32:00,72.5,72.5,29.96,SW,230,0.0,0.0,100,0.01,,,0.01,0.0,meteohub,2013-12-01 05:32:00,
2013-12-01 01:37:00,72.5,72.5,29.96,SW,232,0.0,0.0,100,0.01,,,0.01,0.0,meteohub,2013-12-01 05:37:00,
2013-12-01 01:42:00,72.7,72.7,29.95,SW,233,0.0,4.0,100,0.00,,,0.01,0.0,meteohub,2013-12-01 05:42:00,
2013-12-01 01:47:00,72.7,72.7,29.95,SW,232,0.0,4.0,100,0.00,,,0.01,0.0,meteohub,2013-12-01 05:47:00,
2013-12-01 01:52:00,72.7,72.7,29.95,SW,233,0.0,4.0,100,0.01,,,0.02,0.0,meteohub,2013-12-01 05:52:00,
2013-12-01 01:57:00,72.7,72.7,29.94,SW,232,0.0,0.0,100,0.01,,,0.02,0.0,meteohub,2013-12-01 05:57:00,
2013-12-01 02:02:00,72.7,72.7,29.94,SW,227,0.0,0.0,100,0.01,,,0.02,0.0,meteohub,2013-12-01 06:02:00,
2013-12-01 02:07:00,72.7,72.7,29.94,SW,234,0.0,0.0,100,0.02,,,0.02,0.0,meteohub,2013-12-01 06:07:00,
2013-12-01 02:12:00,72.7,72.7,29.94,SW,232,0.0,0.0,100,0.05,,,0.06,0.0,meteohub,2013-12-01 06:12:00,
2013-12-01 02:17:00,72.7,72.7,29.94,SW,234,0.0,0.0,100,0.10,,,0.11,0.0,meteohub,2013-12-01 06:17:00,
2013-12-01 02:22:00,72.7,72.7,29.94,SW,233,0.0,0.0,100,0.13,,,0.14,0.0,meteohub,2013-12-01 06:22:00,
2013-12-01 02:27:00,72.5,72.5,29.93,SW,232,0.0,0.0,100,0.20,,,0.21,0.0,meteohub,2013-12-01 06:27:00,
2013-12-01 02:32:00,72.3,72.3,29.93,SW,232,0.0,0.0,100,0.20,,,0.21,0.0,meteohub,2013-12-01 06:32:00,
2013-12-01 02:37:00,72.3,72.3,29.93,SW,232,0.0,0.0,100,0.20,,,0.21,0.0,meteohub,2013-12-01 06:37:00,
2013-12-01 02:42:00,72.3,72.3,29.92,SW,232,0.0,0.0,100,0.20,,,0.21,0.0,meteohub,2013-12-01 06:42:00,
2013-12-01 02:47:00,72.3,72.3,29.92,SW,232,0.0,0.0,100,0.20,,,0.21,0.0,meteohub,2013-12-01 06:47:00,
2013-12-01 02:52:00,72.3,72.3,29.92,SW,233,0.0,0.0,100,0.19,,,0.21,0.0,meteohub,2013-12-01 06:52:00,
2013-12-01 02:57:00,72.3,72.3,29.92,SW,232,0.0,0.0,100,0.19,,,0.21,0.0,meteohub,2013-12-01 06:57:00,
2013-12-01 03:02:00,72.3,72.3,29.92,SW,232,0.0,0.0,100,0.19,,,0.21,0.0,meteohub,2013-12-01 07:02:00,
2013-12-01 03:07:00,72.3,72.3,29.92,SW,233,0.0,0.0,100,0.17,,,0.21,0.0,meteohub,2013-12-01 07:07:00,
2013-12-01 03:12:00,72.5,72.5,29.92,SW,232,0.0,0.0,100,0.14,,,0.21,0.0,meteohub,2013-12-01 07:12:00,
2013-12-01 03:17:00,72.5,72.5,29.92,SW,232,0.0,0.0,100,0.10,,,0.21,0.0,meteohub,2013-12-01 07:17:00,
2013-12-01 03:22:00,72.5,72.5,29.92,SW,232,0.0,0.0,100,0.03,,,0.21,0.0,meteohub,2013-12-01 07:22:00,
2013-12-01 03:27:00,72.5,72.5,29.92,SW,232,0.0,0.0,100,0.00,,,0.21,0.0,meteohub,2013-12-01 07:27:00,
2013-12-01 03:32:00,72.5,72.5,29.92,SW,232,0.0,0.0,100,0.00,,,0.21,0.0,meteohub,2013-12-01 07:32:00,
2013-12-01 03:37:00,72.5,72.5,29.92,SW,232,0.0,0.0,100,0.00,,,0.21,0.0,meteohub,2013-12-01 07:37:00,
2013-12-01 03:42:00,72.5,72.5,29.92,SW,232,0.0,0.0,100,0.00,,,0.21,0.0,meteohub,2013-12-01 07:42:00,
2013-12-01 03:47:00,72.5,72.5,29.92,SW,230,0.0,0.0,100,0.00,,,0.21,0.0,meteohub,2013-12-01 07:47:00,
2013-12-01 03:52:00,72.5,72.5,29.92,SSE,147,0.0,0.0,100,0.00,,,0.21,0.0,meteohub,2013-12-01 07:52:00,
2013-12-01 03:57:00,72.5,72.5,29.91,SE,145,0.0,0.0,100,0.00,,,0.21,0.0,meteohub,2013-12-01 07:57:00,
2013-12-01 04:02:00,72.5,72.5,29.91,SE,145,0.0,0.0,100,0.00,,,0.21,0.0,meteohub,2013-12-01 08:02:00,
2013-12-01 04:07:00,72.3,72.3,29.91,SE,144,0.0,0.0,100,0.00,,,0.21,0.0,meteohub,2013-12-01 08:07:00,
2013-12-01 04:12:00,72.3,72.3,29.90,SSE,147,0.0,0.0,100,0.00,,,0.21,0.0,meteohub,2013-12-01 08:12:00,
2013-12-01 04:17:00,72.3,72.3,29.90,SE,145,0.0,0.0,100,0.00,,,0.21,0.0,meteohub,2013-12-01 08:17:00,
2013-12-01 04:22:00,72.3,72.3,29.90,SSE,147,0.0,0.0,100,0.00,,,0.21,0.0,meteohub,2013-12-01 08:22:00,
2013-12-01 04:27:00,72.1,72.1,29.89,SSE,147,0.0,0.0,100,0.00,,,0.21,0.0,meteohub,2013-12-01 08:27:00,
2013-12-01 04:32:00,72.1,72.1,29.89,SE,143,0.0,0.0,100,0.00,,,0.21,0.0,meteohub,2013-12-01 08:32:00,
2013-12-01 04:37:00,72.1,72.1,29.89,SSE,147,0.0,0.0,100,0.00,,,0.21,0.0,meteohub,2013-12-01 08:37:00,
2013-12-01 04:42:00,72.0,72.0,29.89,SSE,147,0.0,0.0,100,0.00,,,0.21,0.0,meteohub,2013-12-01 08:42:00,
2013-12-01 04:47:00,72.0,72.0,29.89,SSE,147,0.0,0.0,100,0.00,,,0.21,0.0,meteohub,2013-12-01 08:47:00,
2013-12-01 04:52:00,72.0,72.0,29.89,SE,144,0.0,0.0,100,0.00,,,0.21,0.0,meteohub,2013-12-01 08:52:00,
2013-12-01 04:57:00,72.0,72.0,29.89,SE,145,0.0,0.0,100,0.01,,,0.22,0.0,meteohub,2013-12-01 08:57:00,
2013-12-01 05:01:00,71.8,71.8,29.89,SSE,147,0.0,0.0,100,0.01,,,0.22,0.0,meteohub,2013-12-01 09:01:00,
2013-12-01 05:06:00,71.8,71.8,29.89,SE,145,0.0,0.0,100,0.01,,,0.22,0.0,meteohub,2013-12-01 09:06:00,
2013-12-01 05:11:00,71.8,71.8,29.89,SSE,147,0.0,0.0,100,0.01,,,0.22,0.0,meteohub,2013-12-01 09:11:00,
2013-12-01 05:16:00,72.0,72.0,29.90,SSE,148,0.0,0.0,100,0.01,,,0.22,0.0,meteohub,2013-12-01 09:16:00,
2013-12-01 05:21:00,72.0,72.0,29.90,SE,145,0.0,0.0,100,0.01,,,0.22,0.0,meteohub,2013-12-01 09:21:00,
2013-12-01 05:26:00,71.8,71.8,29.90,SE,145,0.0,0.0,100,0.01,,,0.22,0.0,meteohub,2013-12-01 09:26:00,
2013-12-01 05:31:00,71.8,71.8,29.89,SE,145,0.0,0.0,100,0.01,,,0.22,0.0,meteohub,2013-12-01 09:31:00,
2013-12-01 05:36:00,71.8,71.8,29.89,SE,145,0.0,0.0,100,0.01,,,0.22,0.0,meteohub,2013-12-01 09:36:00,
2013-12-01 05:41:00,71.8,71.8,29.89,SE,145,0.0,0.0,100,0.01,,,0.22,0.0,meteohub,2013-12-01 09:41:00,
2013-12-01 05:46:00,71.8,71.8,29.90,SE,145,0.0,0.0,100,0.01,,,0.22,0.0,meteohub,2013-12-01 09:46:00,
2013-12-01 05:51:00,71.8,71.8,29.90,SE,145,0.0,0.0,100,0.00,,,0.22,0.0,meteohub,2013-12-01 09:51:00,
2013-12-01 05:56:00,71.8,71.8,29.90,SE,145,0.0,0.0,100,0.00,,,0.22,0.0,meteohub,2013-12-01 09:56:00,
2013-12-01 06:01:00,71.8,71.8,29.92,SSE,147,0.0,0.0,100,0.00,,,0.22,0.0,meteohub,2013-12-01 10:01:00,
2013-12-01 06:06:00,71.8,71.8,29.92,SE,145,0.0,0.0,100,0.00,,,0.22,0.0,meteohub,2013-12-01 10:06:00,
2013-12-01 06:11:00,71.8,71.8,29.92,SE,145,0.0,0.0,100,0.00,,,0.22,0.0,meteohub,2013-12-01 10:11:00,
2013-12-01 06:16:00,71.8,71.8,29.93,SSE,147,0.0,0.0,100,0.00,,,0.22,0.0,meteohub,2013-12-01 10:16:00,
2013-12-01 06:21:00,71.8,71.8,29.93,SE,145,0.0,0.0,100,0.00,,,0.22,0.0,meteohub,2013-12-01 10:21:00,
2013-12-01 06:26:00,72.0,72.0,29.93,SE,145,0.0,0.0,100,0.00,,,0.22,0.0,meteohub,2013-12-01 10:26:00,
2013-12-01 06:31:00,72.1,72.1,29.93,SE,145,0.0,0.0,100,0.00,,,0.22,0.0,meteohub,2013-12-01 10:31:00,
2013-12-01 06:36:00,72.1,72.1,29.93,SE,144,0.0,0.0,100,0.00,,,0.22,0.0,meteohub,2013-12-01 10:36:00,
2013-12-01 06:41:00,72.1,72.1,29.93,SE,145,0.0,0.0,100,0.00,,,0.22,0.0,meteohub,2013-12-01 10:41:00,
2013-12-01 06:46:00,72.3,72.3,29.93,SE,145,0.0,0.0,100,0.00,,,0.22,0.0,meteohub,2013-12-01 10:46:00,
2013-12-01 06:51:00,72.1,72.1,29.93,SW,234,0.0,1.0,100,0.00,,,0.22,0.0,meteohub,2013-12-01 10:51:00,
2013-12-01 06:56:00,72.1,72.1,29.93,SW,234,0.0,1.0,100,0.00,,,0.22,0.0,meteohub,2013-12-01 10:56:00,
2013-12-01 07:01:00,72.1,72.1,29.93,SW,236,0.0,1.0,100,0.00,,,0.22,5.0,meteohub,2013-12-01 11:01:00,
2013-12-01 07:06:00,72.1,72.1,29.93,SW,236,0.0,0.0,100,0.00,,,0.22,7.0,meteohub,2013-12-01 11:06:00,
2013-12-01 07:11:00,71.8,71.8,29.93,WSW,240,2.0,2.0,100,0.00,,,0.22,11.0,meteohub,2013-12-01 11:11:00,
2013-12-01 07:16:00,71.6,71.6,29.92,WSW,240,0.0,6.0,100,0.00,,,0.22,11.0,meteohub,2013-12-01 11:16:00,
2013-12-01 07:21:00,71.4,71.4,29.92,WSW,240,0.0,6.0,100,0.00,,,0.22,18.0,meteohub,2013-12-01 11:21:00,
2013-12-01 07:25:00,71.4,71.4,29.92,WSW,240,0.0,6.0,100,0.00,,,0.22,63.0,meteohub,2013-12-01 11:25:00,
2013-12-01 07:31:00,71.4,71.4,29.93,WSW,240,0.0,0.0,100,0.00,,,0.22,84.0,meteohub,2013-12-01 11:31:00,
2013-12-01 07:36:00,71.2,71.2,29.93,WSW,239,0.0,0.0,100,0.00,,,0.22,32.0,meteohub,2013-12-01 11:36:00,
2013-12-01 07:41:00,71.1,71.1,29.93,SSE,152,0.0,1.0,100,0.00,,,0.22,69.0,meteohub,2013-12-01 11:41:00,
2013-12-01 07:46:00,70.9,70.9,29.93,South,186,0.0,6.0,100,0.00,,,0.22,199.0,meteohub,2013-12-01 11:46:00,
2013-12-01 07:51:00,70.9,70.9,29.93,SSE,151,5.0,6.0,100,0.00,,,0.22,213.0,meteohub,2013-12-01 11:51:00,
2013-12-01 07:55:00,71.1,71.1,29.93,SSE,168,0.0,7.0,100,0.00,,,0.22,230.0,meteohub,2013-12-01 11:55:00,
2013-12-01 08:00:00,71.4,71.4,29.94,South,175,0.0,7.0,100,0.00,,,0.22,253.0,meteohub,2013-12-01 12:00:00,
2013-12-01 08:05:00,71.8,71.8,29.94,South,189,0.0,9.0,100,0.00,,,0.22,282.0,meteohub,2013-12-01 12:05:00,
2013-12-01 08:10:00,72.0,72.0,29.94,SSW,206,5.0,16.0,100,0.00,,,0.22,306.0,meteohub,2013-12-01 12:10:00,
2013-12-01 08:15:00,72.3,72.3,29.94,South,185,7.0,16.0,100,0.00,,,0.22,313.0,meteohub,2013-12-01 12:15:00,
2013-12-01 08:20:00,72.7,72.7,29.94,South,172,0.0,16.0,100,0.00,,,0.22,327.0,meteohub,2013-12-01 12:20:00,
2013-12-01 08:25:00,72.9,72.9,29.94,SSW,193,0.0,11.0,100,0.00,,,0.22,326.0,meteohub,2013-12-01 12:25:00,
2013-12-01 08:30:00,73.2,73.2,29.94,SSW,198,0.0,10.0,100,0.00,,,0.22,320.0,meteohub,2013-12-01 12:30:00,
2013-12-01 08:35:00,73.2,73.2,29.94,SSW,196,0.0,7.0,100,0.00,,,0.22,373.0,meteohub,2013-12-01 12:35:00,
2013-12-01 08:40:00,73.8,73.8,29.94,SSW,199,6.0,6.0,100,0.00,,,0.22,392.0,meteohub,2013-12-01 12:40:00,
2013-12-01 08:45:00,73.9,73.9,29.94,SW,215,1.0,11.0,100,0.00,,,0.22,413.0,meteohub,2013-12-01 12:45:00,
2013-12-01 08:50:00,73.9,73.9,29.94,SSE,165,5.0,11.0,100,0.00,,,0.22,422.0,meteohub,2013-12-01 12:50:00,
2013-12-01 08:55:00,74.1,74.1,29.94,SSE,168,5.0,8.0,100,0.00,,,0.22,433.0,meteohub,2013-12-01 12:55:00,
2013-12-01 09:00:00,74.7,74.7,29.94,SSW,210,0.0,10.0,100,0.00,,,0.22,447.0,meteohub,2013-12-01 13:00:00,
2013-12-01 09:05:00,74.7,74.7,29.94,SSE,165,0.0,10.0,100,0.00,,,0.22,461.0,meteohub,2013-12-01 13:05:00,
2013-12-01 09:10:00,75.0,75.0,29.94,SSW,203,5.0,10.0,100,0.00,,,0.22,473.0,meteohub,2013-12-01 13:10:00,
2013-12-01 09:15:00,75.4,75.4,29.95,SSW,193,0.0,9.0,100,0.00,,,0.22,489.0,meteohub,2013-12-01 13:15:00,
2013-12-01 09:20:00,75.6,75.6,29.95,South,169,0.0,8.0,100,0.00,,,0.22,503.0,meteohub,2013-12-01 13:20:00,
2013-12-01 09:25:00,76.1,76.1,29.95,South,169,0.0,8.0,100,0.00,,,0.22,517.0,meteohub,2013-12-01 13:25:00,
2013-12-01 09:30:00,76.1,76.1,29.95,South,171,0.0,8.0,100,0.00,,,0.22,537.0,meteohub,2013-12-01 13:30:00,
2013-12-01 09:35:00,76.6,76.6,29.95,SSW,193,0.0,8.0,100,0.00,,,0.22,547.0,meteohub,2013-12-01 13:35:00,
2013-12-01 09:40:00,77.0,77.0,29.95,SSE,168,0.0,8.0,100,0.00,,,0.22,563.0,meteohub,2013-12-01 13:40:00,
2013-12-01 09:45:00,77.4,77.4,29.96,South,169,0.0,10.0,100,0.00,,,0.22,625.0,meteohub,2013-12-01 13:45:00,
2013-12-01 09:50:00,77.7,77.7,29.96,South,174,4.0,10.0,100,0.00,,,0.22,232.0,meteohub,2013-12-01 13:50:00,
2013-12-01 09:55:00,77.9,77.9,29.96,South,172,0.0,10.0,100,0.00,,,0.22,236.0,meteohub,2013-12-01 13:55:00,
2013-12-01 10:00:00,77.9,77.5,29.96,South,174,0.0,10.0,99,0.00,,,0.22,792.0,meteohub,2013-12-01 14:00:00,
2013-12-01 10:05:00,78.1,77.5,29.96,SSW,200,0.0,10.0,98,0.00,,,0.22,621.0,meteohub,2013-12-01 14:05:00,
2013-12-01 10:10:00,78.3,77.4,29.96,SSE,168,0.0,11.0,97,0.00,,,0.22,352.0,meteohub,2013-12-01 14:10:00,
2013-12-01 10:15:00,78.6,77.4,29.96,SSE,168,0.0,11.0,96,0.00,,,0.22,271.0,meteohub,2013-12-01 14:15:00,
2013-12-01 10:20:00,79.0,77.7,29.96,SSE,160,0.0,11.0,96,0.00,,,0.22,253.0,meteohub,2013-12-01 14:20:00,
2013-12-01 10:25:00,79.2,77.4,29.96,South,174,0.0,8.0,94,0.00,,,0.22,593.0,meteohub,2013-12-01 14:25:00,
2013-12-01 10:30:00,79.3,77.2,29.96,SE,134,0.0,7.0,93,0.00,,,0.22,413.0,meteohub,2013-12-01 14:30:00,
2013-12-01 10:35:00,79.9,77.4,29.96,East,96,0.0,7.0,92,0.00,,,0.22,435.0,meteohub,2013-12-01 14:35:00,
2013-12-01 10:40:00,80.2,77.4,29.96,SE,141,7.0,8.0,91,0.00,,,0.22,69.0,meteohub,2013-12-01 14:40:00,
2013-12-01 10:45:00,80.8,77.5,29.96,SSE,148,5.0,10.0,90,0.00,,,0.22,706.0,meteohub,2013-12-01 14:45:00,
2013-12-01 10:50:00,81.1,77.5,29.96,ESE,112,0.0,10.0,89,0.00,,,0.22,739.0,meteohub,2013-12-01 14:50:00,
2013-12-01 10:55:00,81.3,77.7,29.96,SSE,147,0.0,10.0,89,0.00,,,0.22,311.0,meteohub,2013-12-01 14:55:00,
2013-12-01 11:00:00,81.3,77.4,29.96,ESE,104,0.0,8.0,88,0.00,,,0.22,533.0,meteohub,2013-12-01 15:00:00,
2013-12-01 11:05:00,81.7,77.4,29.96,ESE,119,3.0,12.0,87,0.00,,,0.22,922.0,meteohub,2013-12-01 15:05:00,
2013-12-01 11:10:00,82.0,77.4,29.96,SE,127,0.0,12.0,86,0.00,,,0.22,290.0,meteohub,2013-12-01 15:10:00,
2013-12-01 11:15:00,82.2,77.5,29.96,ESE,123,0.0,12.0,86,0.00,,,0.22,788.0,meteohub,2013-12-01 15:15:00,
2013-12-01 11:20:00,82.6,77.9,29.96,SE,134,0.0,5.0,86,0.00,,,0.22,813.0,meteohub,2013-12-01 15:20:00,
2013-12-01 11:25:00,82.8,77.4,29.96,SE,124,0.0,7.0,84,0.00,,,0.22,252.0,meteohub,2013-12-01 15:25:00,
2013-12-01 11:30:00,82.9,77.5,29.95,SE,124,0.0,7.0,84,0.00,,,0.22,887.0,meteohub,2013-12-01 15:30:00,
2013-12-01 11:35:00,83.5,78.1,29.95,East,100,2.0,7.0,84,0.00,,,0.22,216.0,meteohub,2013-12-01 15:35:00,
2013-12-01 11:40:00,83.8,78.1,29.95,East,88,0.0,6.0,83,0.00,,,0.22,882.0,meteohub,2013-12-01 15:40:00,
2013-12-01 11:45:00,84.0,78.3,29.94,SE,138,0.0,6.0,83,0.00,,,0.22,882.0,meteohub,2013-12-01 15:45:00,
2013-12-01 11:50:00,84.0,77.5,29.94,SSE,167,4.0,7.0,81,0.00,,,0.22,843.0,meteohub,2013-12-01 15:50:00,
2013-12-01 11:55:00,84.0,77.5,29.94,ESE,114,0.0,10.0,81,0.00,,,0.22,878.0,meteohub,2013-12-01 15:55:00,
2013-12-01 12:00:00,84.4,77.9,29.94,SSE,167,0.0,10.0,81,0.00,,,0.22,890.0,meteohub,2013-12-01 16:00:00,
2013-12-01 12:05:00,84.6,78.1,29.94,SSE,165,0.0,10.0,81,0.00,,,0.22,343.0,meteohub,2013-12-01 16:05:00,
2013-12-01 12:10:00,84.7,78.3,29.94,SSE,168,0.0,7.0,81,0.00,,,0.22,313.0,meteohub,2013-12-01 16:10:00,
2013-12-01 12:15:00,84.6,77.7,29.93,SE,140,3.0,6.0,80,0.00,,,0.22,343.0,meteohub,2013-12-01 16:15:00,
2013-12-01 12:20:00,84.7,78.6,29.93,NE,56,5.0,6.0,82,0.00,,,0.22,890.0,meteohub,2013-12-01 16:20:00,
2013-12-01 12:25:00,84.6,79.2,29.93,NNE,17,8.0,12.0,84,0.00,,,0.22,702.0,meteohub,2013-12-01 16:25:00,
2013-12-01 12:30:00,84.0,78.6,29.93,NNE,24,10.0,12.0,84,0.00,,,0.22,225.0,meteohub,2013-12-01 16:30:00,
2013-12-01 12:35:00,83.7,78.3,29.93,NE,49,0.0,13.0,84,0.00,,,0.22,181.0,meteohub,2013-12-01 16:35:00,
2013-12-01 12:40:00,83.5,78.4,29.93,NE,41,0.0,13.0,85,0.00,,,0.22,229.0,meteohub,2013-12-01 16:40:00,
2013-12-01 12:45:00,83.1,78.4,29.92,NE,34,0.0,10.0,86,0.00,,,0.22,227.0,meteohub,2013-12-01 16:45:00,
2013-12-01 12:50:00,82.9,78.3,29.92,ENE,71,8.0,8.0,86,0.00,,,0.22,357.0,meteohub,2013-12-01 16:50:00,
2013-12-01 12:55:00,82.8,78.4,29.92,NNE,31,7.0,12.0,87,0.00,,,0.22,359.0,meteohub,2013-12-01 16:55:00,
2013-12-01 13:00:00,82.8,78.4,29.91,ENE,71,0.0,12.0,87,0.00,,,0.22,201.0,meteohub,2013-12-01 17:00:00,
2013-12-01 13:05:00,82.6,78.6,29.91,NE,56,0.0,12.0,88,0.00,,,0.22,354.0,meteohub,2013-12-01 17:05:00,
2013-12-01 13:10:00,82.6,78.6,29.91,East,88,0.0,10.0,88,0.00,,,0.22,134.0,meteohub,2013-12-01 17:10:00,
2013-12-01 13:15:00,82.6,78.6,29.91,East,85,0.0,8.0,88,0.00,,,0.22,171.0,meteohub,2013-12-01 17:15:00,
2013-12-01 13:20:00,82.8,78.8,29.91,ESE,110,5.0,8.0,88,0.00,,,0.22,788.0,meteohub,2013-12-01 17:20:00,
2013-12-01 13:25:00,82.8,78.8,29.91,East,99,0.0,6.0,88,0.00,,,0.22,317.0,meteohub,2013-12-01 17:25:00,
2013-12-01 13:30:00,82.6,78.6,29.90,NE,54,2.0,6.0,88,0.00,,,0.22,804.0,meteohub,2013-12-01 17:30:00,
2013-12-01 13:35:00,82.8,78.8,29.90,East,100,0.0,7.0,88,0.00,,,0.22,102.0,meteohub,2013-12-01 17:35:00,
2013-12-01 13:40:00,82.6,78.3,29.90,East,99,0.0,7.0,87,0.00,,,0.22,130.0,meteohub,2013-12-01 17:40:00,
2013-12-01 13:45:00,82.6,78.3,29.90,East,99,0.0,6.0,87,0.00,,,0.22,130.0,meteohub,2013-12-01 17:45:00,
2013-12-01 13:50:00,82.4,78.1,29.90,East,99,0.0,0.0,87,0.00,,,0.22,211.0,meteohub,2013-12-01 17:50:00,
2013-12-01 13:55:00,82.6,78.6,29.90,East,100,4.0,0.0,88,0.00,,,0.22,257.0,meteohub,2013-12-01 17:55:00,
2013-12-01 14:00:00,82.8,79.2,29.90,East,82,0.0,8.0,89,0.00,,,0.22,857.0,meteohub,2013-12-01 18:00:00,
2013-12-01 14:05:00,83.1,79.2,29.90,East,97,6.0,9.0,88,0.00,,,0.22,867.0,meteohub,2013-12-01 18:05:00,
2013-12-01 14:10:00,83.1,79.2,29.90,ENE,73,0.0,9.0,88,0.00,,,0.22,852.0,meteohub,2013-12-01 18:10:00,
2013-12-01 14:15:00,83.5,79.9,29.90,East,92,4.0,9.0,89,0.00,,,0.22,878.0,meteohub,2013-12-01 18:15:00,
2013-12-01 14:20:00,83.7,80.1,29.90,ENE,64,0.0,10.0,89,0.00,,,0.22,762.0,meteohub,2013-12-01 18:20:00,
2013-12-01 14:25:00,83.8,79.9,29.90,ENE,69,2.0,10.0,88,0.00,,,0.22,764.0,meteohub,2013-12-01 18:25:00,
2013-12-01 14:30:00,83.8,80.6,29.89,SE,137,103.0,103.0,90,0.02,,,0.24,269.0,meteohub,2013-12-01 18:30:00,
2013-12-01 14:35:00,82.6,79.7,29.89,SE,136,0.0,112.0,91,0.04,,,0.26,158.0,meteohub,2013-12-01 18:35:00,
2013-12-01 14:40:00,81.9,79.3,29.89,SE,136,0.0,112.0,92,0.05,,,0.27,137.0,meteohub,2013-12-01 18:40:00,
2013-12-01 14:45:00,81.1,79.0,29.88,SE,134,0.0,112.0,93,0.07,,,0.29,109.0,meteohub,2013-12-01 18:45:00,
2013-12-01 14:50:00,81.1,79.5,29.88,East,82,0.0,4.0,95,0.07,,,0.29,106.0,meteohub,2013-12-01 18:50:00,
2013-12-01 14:55:00,81.0,79.3,29.88,East,96,0.0,4.0,95,0.07,,,0.29,141.0,meteohub,2013-12-01 18:55:00,
2013-12-01 15:00:00,80.2,79.0,29.88,East,92,0.0,6.0,96,0.07,,,0.29,128.0,meteohub,2013-12-01 19:00:00,
2013-12-01 15:05:00,79.9,78.6,29.88,ENE,69,0.0,6.0,96,0.07,,,0.29,104.0,meteohub,2013-12-01 19:05:00,
2013-12-01 15:10:00,79.9,79.0,29.88,ENE,71,0.0,0.0,97,0.07,,,0.29,120.0,meteohub,2013-12-01 19:10:00,
2013-12-01 15:15:00,79.9,79.0,29.89,ENE,72,0.0,6.0,97,0.07,,,0.29,132.0,meteohub,2013-12-01 19:15:00,
2013-12-01 15:20:00,79.5,78.6,29.89,East,88,3.0,6.0,97,0.07,,,0.29,134.0,meteohub,2013-12-01 19:20:00,
2013-12-01 15:25:00,79.5,79.0,29.89,ESE,102,0.0,6.0,98,0.07,,,0.29,123.0,meteohub,2013-12-01 19:25:00,
2013-12-01 15:30:00,79.5,79.2,29.88,East,95,0.0,7.0,99,0.04,,,0.29,95.0,meteohub,2013-12-01 19:30:00,
2013-12-01 15:35:00,79.3,78.8,29.88,East,85,11.0,12.0,98,0.03,,,0.29,77.0,meteohub,2013-12-01 19:35:00,
2013-12-01 15:38:00,78.6,78.1,29.88,East,97,7.0,12.0,98,0.03,,,0.29,69.0,meteohub,2013-12-01 19:38:00,
2013-12-01 15:43:00,78.3,77.7,29.90,East,92,0.0,12.0,98,0.01,,,0.29,56.0,meteohub,2013-12-01 19:43:00,
2013-12-01 15:48:00,77.9,77.4,29.90,East,93,5.0,12.0,98,0.00,,,0.29,48.0,meteohub,2013-12-01 19:48:00,
2013-12-01 15:53:00,77.9,77.5,29.90,East,100,0.0,11.0,99,0.00,,,0.29,42.0,meteohub,2013-12-01 19:53:00,
2013-12-01 15:58:00,77.9,77.5,29.90,SE,138,1.0,10.0,99,0.00,,,0.29,40.0,meteohub,2013-12-01 19:58:00,
2013-12-01 16:03:00,77.9,77.5,29.90,SE,127,0.0,10.0,99,0.00,,,0.29,33.0,meteohub,2013-12-01 20:03:00,
2013-12-01 16:08:00,77.7,77.4,29.90,SE,141,5.0,10.0,99,0.00,,,0.29,18.0,meteohub,2013-12-01 20:08:00,
2013-12-01 16:13:00,77.2,76.8,29.91,SE,140,0.0,8.0,99,0.00,,,0.29,16.0,meteohub,2013-12-01 20:13:00,
2013-12-01 16:18:00,76.6,76.1,29.91,SE,131,5.0,11.0,98,0.00,,,0.29,18.0,meteohub,2013-12-01 20:18:00,
2013-12-01 16:23:00,76.5,75.9,29.91,SE,144,3.0,11.0,98,0.00,,,0.29,18.0,meteohub,2013-12-01 20:23:00,
2013-12-01 16:28:00,76.5,75.9,29.91,SE,130,0.0,10.0,98,0.00,,,0.29,16.0,meteohub,2013-12-01 20:28:00,
2013-12-01 16:33:00,76.3,75.4,29.91,SSE,168,6.0,11.0,97,0.00,,,0.29,12.0,meteohub,2013-12-01 20:33:00,
2013-12-01 16:38:00,75.7,74.5,29.91,SE,145,6.0,11.0,96,0.00,,,0.29,9.0,meteohub,2013-12-01 20:38:00,
2013-12-01 16:43:00,75.7,74.1,29.91,SE,144,10.0,12.0,95,0.00,,,0.29,7.0,meteohub,2013-12-01 20:43:00,
2013-12-01 16:48:00,75.6,73.9,29.91,SE,140,0.0,12.0,95,0.00,,,0.29,5.0,meteohub,2013-12-01 20:48:00,
2013-12-01 16:53:00,75.6,73.9,29.91,South,176,0.0,12.0,95,0.00,,,0.29,5.0,meteohub,2013-12-01 20:53:00,
2013-12-01 16:58:00,75.4,74.1,29.91,South,186,7.0,11.0,96,0.00,,,0.29,5.0,meteohub,2013-12-01 20:58:00,
2013-12-01 17:03:00,75.4,74.1,29.91,South,188,0.0,10.0,96,0.00,,,0.29,5.0,meteohub,2013-12-01 21:03:00,
2013-12-01 17:08:00,75.4,74.1,29.91,South,174,3.0,10.0,96,0.00,,,0.29,0.0,meteohub,2013-12-01 21:08:00,
2013-12-01 17:13:00,75.0,73.8,29.91,SSE,161,7.0,10.0,96,0.00,,,0.29,0.0,meteohub,2013-12-01 21:13:00,
2013-12-01 17:18:00,75.0,73.8,29.91,SSE,160,0.0,8.0,96,0.00,,,0.29,0.0,meteohub,2013-12-01 21:18:00,
2013-12-01 17:23:00,75.4,74.5,29.91,South,176,0.0,8.0,97,0.01,,,0.30,0.0,meteohub,2013-12-01 21:23:00,
2013-12-01 17:28:00,75.4,74.5,29.90,SSW,198,0.0,7.0,97,0.01,,,0.30,0.0,meteohub,2013-12-01 21:28:00,
2013-12-01 17:33:00,75.4,74.8,29.90,South,175,0.0,7.0,98,0.01,,,0.30,0.0,meteohub,2013-12-01 21:33:00,
2013-12-01 17:38:00,75.4,74.8,29.90,SSE,158,0.0,7.0,98,0.01,,,0.30,0.0,meteohub,2013-12-01 21:38:00,
2013-12-01 17:43:00,75.4,75.0,29.89,SSE,168,0.0,0.0,99,0.01,,,0.30,0.0,meteohub,2013-12-01 21:43:00,
2013-12-01 17:48:00,75.4,75.0,29.89,South,188,0.0,8.0,99,0.01,,,0.30,0.0,meteohub,2013-12-01 21:48:00,
2013-12-01 17:53:00,75.0,75.0,29.89,SSW,198,0.0,8.0,100,0.01,,,0.30,0.0,meteohub,2013-12-01 21:53:00,
2013-12-01 17:58:00,74.8,74.8,29.89,SSW,193,0.0,8.0,100,0.01,,,0.30,0.0,meteohub,2013-12-01 21:58:00,
2013-12-01 18:03:00,74.7,74.7,29.89,SSE,160,0.0,8.0,100,0.01,,,0.30,0.0,meteohub,2013-12-01 22:03:00,
2013-12-01 18:08:00,74.7,74.7,29.89,South,182,0.0,8.0,100,0.01,,,0.30,0.0,meteohub,2013-12-01 22:08:00,
2013-12-01 18:13:00,74.7,74.7,29.91,SSW,202,0.0,8.0,100,0.01,,,0.30,0.0,meteohub,2013-12-01 22:13:00,
2013-12-01 18:18:00,74.5,74.5,29.91,SSW,200,0.0,7.0,100,0.01,,,0.30,0.0,meteohub,2013-12-01 22:18:00,
2013-12-01 18:23:00,74.5,74.5,29.91,SSW,200,0.0,0.0,100,0.00,,,0.30,0.0,meteohub,2013-12-01 22:23:00,
2013-12-01 18:28:00,74.1,74.1,29.91,SSW,202,0.0,0.0,100,0.00,,,0.30,0.0,meteohub,2013-12-01 22:28:00,
2013-12-01 18:33:00,74.1,74.1,29.91,SSW,200,0.0,0.0,100,0.00,,,0.30,0.0,meteohub,2013-12-01 22:33:00,
2013-12-01 18:38:00,73.9,73.9,29.91,SSW,200,0.0,0.0,100,0.00,,,0.30,0.0,meteohub,2013-12-01 22:38:00,
2013-12-01 18:43:00,73.9,73.9,29.91,SSW,202,0.0,0.0,100,0.00,,,0.30,0.0,meteohub,2013-12-01 22:43:00,
2013-12-01 18:48:00,73.9,73.9,29.91,South,186,0.0,0.0,100,0.00,,,0.30,0.0,meteohub,2013-12-01 22:48:00,
2013-12-01 18:53:00,73.9,73.9,29.91,South,171,0.0,5.0,100,0.00,,,0.30,0.0,meteohub,2013-12-01 22:53:00,
2013-12-01 18:58:00,73.9,73.9,29.91,South,169,0.0,5.0,100,0.00,,,0.30,0.0,meteohub,2013-12-01 22:58:00,
2013-12-01 19:03:00,73.8,73.8,29.91,South,169,0.0,6.0,100,0.00,,,0.30,0.0,meteohub,2013-12-01 23:03:00,
2013-12-01 19:08:00,73.8,73.8,29.91,South,169,0.0,6.0,100,0.00,,,0.30,0.0,meteohub,2013-12-01 23:08:00,
2013-12-01 19:13:00,73.9,73.9,29.91,South,169,0.0,0.0,100,0.00,,,0.30,0.0,meteohub,2013-12-01 23:13:00,
2013-12-01 19:18:00,73.8,73.8,29.91,South,175,0.0,0.0,100,0.00,,,0.30,0.0,meteohub,2013-12-01 23:18:00,
2013-12-01 19:23:00,73.8,73.8,29.91,South,175,0.0,0.0,100,0.00,,,0.30,0.0,meteohub,2013-12-01 23:23:00,
2013-12-01 19:28:00,73.9,73.9,29.91,South,175,0.0,0.0,100,0.00,,,0.30,0.0,meteohub,2013-12-01 23:28:00,
2013-12-01 19:33:00,73.9,73.9,29.91,South,175,0.0,0.0,100,0.00,,,0.30,0.0,meteohub,2013-12-01 23:33:00,
2013-12-01 19:38:00,73.9,73.9,29.91,South,176,0.0,0.0,100,0.00,,,0.30,0.0,meteohub,2013-12-01 23:38:00,
2013-12-01 19:43:00,73.9,73.9,29.92,South,175,0.0,0.0,100,0.00,,,0.30,0.0,meteohub,2013-12-01 23:43:00,
2013-12-01 19:48:00,73.9,73.9,29.92,South,175,0.0,0.0,100,0.00,,,0.30,0.0,meteohub,2013-12-01 23:48:00,
2013-12-01 19:53:00,73.9,73.9,29.92,South,176,0.0,0.0,100,0.00,,,0.30,0.0,meteohub,2013-12-01 23:53:00,
2013-12-01 19:58:00,73.9,73.9,29.93,South,175,0.0,0.0,100,0.00,,,0.30,0.0,meteohub,2013-12-01 23:58:00,
2013-12-01 20:03:00,74.1,74.1,29.93,South,174,0.0,0.0,100,0.00,,,0.30,0.0,meteohub,2013-12-02 00:03:00,
2013-12-01 20:08:00,74.1,74.1,29.93,South,181,0.0,0.0,100,0.00,,,0.30,0.0,meteohub,2013-12-02 00:08:00,
2013-12-01 20:13:00,74.1,74.1,29.94,South,174,0.0,0.0,100,0.00,,,0.30,0.0,meteohub,2013-12-02 00:13:00,
2013-12-01 20:18:00,73.9,73.9,29.94,South,175,0.0,0.0,100,0.00,,,0.30,0.0,meteohub,2013-12-02 00:18:00,
2013-12-01 20:23:00,74.1,74.1,29.94,South,175,0.0,0.0,100,0.00,,,0.30,0.0,meteohub,2013-12-02 00:23:00,
2013-12-01 20:28:00,74.1,74.1,29.94,South,175,0.0,0.0,100,0.00,,,0.30,0.0,meteohub,2013-12-02 00:28:00,
2013-12-01 20:33:00,74.1,74.1,29.94,South,175,0.0,0.0,100,0.00,,,0.30,0.0,meteohub,2013-12-02 00:33:00,
2013-12-01 20:38:00,74.1,74.1,29.94,South,172,0.0,0.0,100,0.00,,,0.30,0.0,meteohub,2013-12-02 00:38:00,
2013-12-01 20:43:00,74.5,74.5,29.94,SSE,147,0.0,1.0,100,0.00,,,0.30,0.0,meteohub,2013-12-02 00:43:00,
2013-12-01 20:48:00,74.5,74.5,29.94,SE,144,4.0,4.0,100,0.00,,,0.30,0.0,meteohub,2013-12-02 00:48:00,
2013-12-01 20:53:00,74.5,74.5,29.94,SE,140,0.0,7.0,100,0.00,,,0.30,0.0,meteohub,2013-12-02 00:53:00,
2013-12-01 20:58:00,74.5,74.5,29.94,SE,140,0.0,8.0,100,0.00,,,0.30,0.0,meteohub,2013-12-02 00:58:00,
2013-12-01 21:03:00,74.1,74.1,29.94,SSE,150,0.0,8.0,100,0.00,,,0.30,0.0,meteohub,2013-12-02 01:03:00,
2013-12-01 21:08:00,74.1,74.1,29.94,SSE,152,0.0,0.0,100,0.00,,,0.30,0.0,meteohub,2013-12-02 01:08:00,
2013-12-01 21:13:00,74.1,74.1,29.95,SSW,210,0.0,1.0,100,0.00,,,0.30,0.0,meteohub,2013-12-02 01:13:00,
2013-12-01 21:18:00,74.1,74.1,29.95,South,191,0.0,1.0,100,0.00,,,0.30,0.0,meteohub,2013-12-02 01:18:00,
2013-12-01 21:23:00,74.5,74.5,29.95,South,191,0.0,1.0,100,0.00,,,0.30,0.0,meteohub,2013-12-02 01:23:00,
2013-12-01 21:28:00,74.5,74.5,29.95,SSW,192,0.0,0.0,100,0.00,,,0.30,0.0,meteohub,2013-12-02 01:28:00,
2013-12-01 21:33:00,74.5,74.1,29.95,South,191,0.0,0.0,99,0.00,,,0.30,0.0,meteohub,2013-12-02 01:33:00,
2013-12-01 21:38:00,74.5,74.1,29.95,South,191,0.0,0.0,99,0.00,,,0.30,0.0,meteohub,2013-12-02 01:38:00,
2013-12-01 21:43:00,74.5,74.1,29.95,SSW,192,0.0,0.0,99,0.00,,,0.30,0.0,meteohub,2013-12-02 01:43:00,
2013-12-01 21:48:00,74.5,74.1,29.95,South,191,0.0,0.0,99,0.00,,,0.30,0.0,meteohub,2013-12-02 01:48:00,
2013-12-01 21:53:00,74.7,74.3,29.95,South,191,0.0,0.0,99,0.00,,,0.30,0.0,meteohub,2013-12-02 01:53:00,
2013-12-01 21:58:00,74.5,74.1,29.95,SSW,192,0.0,0.0,99,0.00,,,0.30,0.0,meteohub,2013-12-02 01:58:00,
2013-12-01 22:03:00,74.7,74.3,29.95,South,191,0.0,0.0,99,0.00,,,0.30,0.0,meteohub,2013-12-02 02:03:00,
2013-12-01 22:08:00,74.7,74.3,29.95,South,191,0.0,0.0,99,0.00,,,0.30,0.0,meteohub,2013-12-02 02:08:00,
2013-12-01 22:13:00,74.7,74.3,29.95,SSW,192,0.0,0.0,99,0.00,,,0.30,0.0,meteohub,2013-12-02 02:13:00,
2013-12-01 22:18:00,74.7,74.3,29.95,SSW,192,0.0,0.0,99,0.00,,,0.30,0.0,meteohub,2013-12-02 02:18:00,
2013-12-01 22:23:00,74.5,74.1,29.95,South,185,0.0,0.0,99,0.00,,,0.30,0.0,meteohub,2013-12-02 02:23:00,
2013-12-01 22:28:00,74.5,74.1,29.95,South,191,0.0,0.0,99,0.00,,,0.30,0.0,meteohub,2013-12-02 02:28:00,
2013-12-01 22:33:00,74.5,74.1,29.95,South,191,0.0,0.0,99,0.00,,,0.30,0.0,meteohub,2013-12-02 02:33:00,
2013-12-01 22:38:00,74.1,73.8,29.95,South,191,0.0,0.0,99,0.00,,,0.30,0.0,meteohub,2013-12-02 02:38:00,
2013-12-01 22:43:00,74.1,74.1,29.95,SSW,203,0.0,0.0,100,0.00,,,0.30,0.0,meteohub,2013-12-02 02:43:00,
2013-12-01 22:48:00,74.1,74.1,29.95,SW,219,0.0,1.0,100,0.00,,,0.30,0.0,meteohub,2013-12-02 02:48:00,
2013-12-01 22:53:00,74.1,74.1,29.95,SW,219,0.0,1.0,100,0.00,,,0.30,0.0,meteohub,2013-12-02 02:53:00,
2013-12-01 22:58:00,74.1,74.1,29.96,SW,219,0.0,1.0,100,0.00,,,0.30,0.0,meteohub,2013-12-02 02:58:00,
2013-12-01 23:03:00,74.1,74.1,29.96,SW,220,0.0,0.0,100,0.00,,,0.30,0.0,meteohub,2013-12-02 03:03:00,
2013-12-01 23:08:00,74.1,74.1,29.96,SW,220,0.0,0.0,100,0.00,,,0.30,0.0,meteohub,2013-12-02 03:08:00,
2013-12-01 23:13:00,74.1,74.1,29.95,SW,220,0.0,0.0,100,0.00,,,0.30,0.0,meteohub,2013-12-02 03:13:00,
2013-12-01 23:18:00,74.5,74.5,29.95,SW,220,0.0,0.0,100,0.00,,,0.30,0.0,meteohub,2013-12-02 03:18:00,
2013-12-01 23:23:00,74.5,74.5,29.95,SW,222,0.0,0.0,100,0.00,,,0.30,0.0,meteohub,2013-12-02 03:23:00,
2013-12-01 23:28:00,74.5,74.5,29.95,SW,222,0.0,0.0,100,0.00,,,0.30,0.0,meteohub,2013-12-02 03:28:00,
2013-12-01 23:33:00,74.5,74.5,29.95,SW,220,0.0,0.0,100,0.00,,,0.30,0.0,meteohub,2013-12-02 03:33:00,
2013-12-01 23:38:00,74.5,74.5,29.95,SW,220,0.0,0.0,100,0.00,,,0.30,0.0,meteohub,2013-12-02 03:38:00,
2013-12-01 23:43:00,74.5,74.5,29.95,SW,222,0.0,0.0,100,0.00,,,0.30,0.0,meteohub,2013-12-02 03:43:00,
2013-12-01 23:48:00,74.5,74.5,29.95,SW,219,0.0,0.0,100,0.00,,,0.30,0.0,meteohub,2013-12-02 03:48:00,
2013-12-01 23:53:00,74.7,74.7,29.95,SW,220,0.0,0.0,100,0.00,,,0.30,0.0,meteohub,2013-12-02 03:53:00,
2013-12-01 23:58:00,74.7,74.7,29.94,SW,220,0.0,0.0,100,0.00,,,0.30,0.0,meteohub,2013-12-02 03:58:00,